• In Uzbekistan
  • List of Countries
  • For 7 days
  • Water Temperature
  • Satellite Maps
  • Weather Map
  • Weather Widgets
  • user-avatar
    Login

    Hourly Weather Motozintla de Mendoza

    Today, 23 February, Saturday

    Time Temperature Precipitation Wind Pressure Humidity
    00:00 +19°C° 0 mm 1 mps 641 mmHg 81%
    01:00 +19°C° 0 mm 1 mps 641 mmHg 81%
    02:00 +18°C° 0 mm 1 mps 640 mmHg 81%
    03:00 +18°C° 0 mm 1 mps 640 mmHg 81%
    04:00 +18°C° 0 mm 1 mps 640 mmHg 80%
    05:00 +18°C° 0 mm 1 mps 640 mmHg 79%
    06:00 +18°C° 0 mm 1 mps 640 mmHg 77%
    07:00 +20°C° 0 mm 1 mps 641 mmHg 69%
    08:00 +22°C° 0 mm 1 mps 642 mmHg 61%
    09:00 +23°C° 0 mm 0 mps 643 mmHg 53%
    10:00 +26°C° 0 mm 1 mps 643 mmHg 52%
    11:00 +27°C° 0 mm 1 mps 643 mmHg 51%
    12:00 +28°C° 0 mm 2 mps 643 mmHg 50%
    13:00 +27°C° 0.4 mm 1 mps 643 mmHg 56%
    14:00 +25°C° 0.4 mm 1 mps 642 mmHg 62%
    15:00 +24°C° 0.4 mm 1 mps 641 mmHg 68%
    16:00 +24°C° 0.4 mm 1 mps 641 mmHg 71%
    17:00 +23°C° 0.4 mm 1 mps 641 mmHg 74%
    18:00 +22°C° 0.4 mm 1 mps 640 mmHg 77%
    19:00 +21°C° 0.1 mm 1 mps 640 mmHg 78%
    20:00 +20°C° 0.1 mm 1 mps 641 mmHg 79%
    21:00 +19°C° 0.1 mm 1 mps 641 mmHg 80%
    22:00 +18°C° 0 mm 1 mps 641 mmHg 79%
    23:00 +18°C° 0 mm 1 mps 641 mmHg 77%

    Tomorrow, 24 February, Sunday

    Time Temperature Precipitation Wind Pressure Humidity
    00:00 +18°C° 0 mm 1 mps 641 mmHg 75%
    01:00 +16°C° 0 mm 1 mps 641 mmHg 74%
    02:00 +16°C° 0 mm 1 mps 640 mmHg 73%
    03:00 +16°C° 0 mm 1 mps 640 mmHg 72%
    04:00 +16°C° 0 mm 1 mps 640 mmHg 72%
    05:00 +16°C° 0 mm 1 mps 640 mmHg 71%
    06:00 +16°C° 0 mm 1 mps 640 mmHg 71%
    07:00 +19°C° 0 mm 1 mps 641 mmHg 64%
    08:00 +22°C° 0 mm 1 mps 642 mmHg 58%
    09:00 +25°C° 0 mm 1 mps 644 mmHg 51%
    10:00 +26°C° 0 mm 1 mps 644 mmHg 48%
    11:00 +28°C° 0 mm 1 mps 644 mmHg 45%
    12:00 +29°C° 0 mm 2 mps 644 mmHg 42%
    13:00 +28°C° 0.1 mm 2 mps 643 mmHg 46%
    14:00 +27°C° 0.1 mm 2 mps 642 mmHg 49%
    15:00 +27°C° 0.1 mm 2 mps 641 mmHg 52%
    16:00 +25°C° 0.2 mm 1 mps 641 mmHg 59%
    17:00 +24°C° 0.2 mm 1 mps 640 mmHg 66%
    18:00 +22°C° 0.2 mm 1 mps 640 mmHg 72%
    19:00 +21°C° 0 mm 1 mps 640 mmHg 76%
    20:00 +20°C° 0 mm 1 mps 640 mmHg 80%
    21:00 +18°C° 0 mm 1 mps 641 mmHg 84%
    22:00 +17°C° 0 mm 2 mps 641 mmHg 83%
    23:00 +17°C° 0 mm 2 mps 641 mmHg 81%

    Day after tomorrow, 25 February, Monday

    Time Temperature Precipitation Wind Pressure Humidity
    00:00 +17°C° 0 mm 2 mps 641 mmHg 80%
    01:00 +17°C° 0 mm 2 mps 641 mmHg 81%
    02:00 +16°C° 0 mm 2 mps 640 mmHg 82%
    03:00 +16°C° 0 mm 1 mps 640 mmHg 83%
    04:00 +16°C° 0 mm 1 mps 640 mmHg 84%
    05:00 +16°C° 0 mm 1 mps 640 mmHg 85%
    06:00 +16°C° 0 mm 1 mps 640 mmHg 85%
    07:00 +19°C° 0 mm 1 mps 642 mmHg 76%
    08:00 +22°C° 0 mm 1 mps 643 mmHg 67%
    09:00 +24°C° 0 mm 1 mps 644 mmHg 58%
    10:00 +25°C° 0 mm 1 mps 644 mmHg 55%
    11:00 +26°C° 0 mm 1 mps 644 mmHg 52%
    12:00 +27°C° 0 mm 1 mps 644 mmHg 49%
    13:00 +26°C° 0.3 mm 1 mps 643 mmHg 53%
    14:00 +25°C° 0.3 mm 1 mps 642 mmHg 58%
    15:00 +24°C° 0.3 mm 1 mps 641 mmHg 62%
    16:00 +24°C° 0.1 mm 1 mps 641 mmHg 64%
    17:00 +23°C° 0.1 mm 1 mps 641 mmHg 66%
    18:00 +22°C° 0.1 mm 1 mps 641 mmHg 68%
    19:00 +20°C° 0 mm 1 mps 641 mmHg 70%
    20:00 +19°C° 0 mm 1 mps 641 mmHg 73%
    21:00 +16°C° 0 mm 1 mps 641 mmHg 75%
    22:00 +16°C° 0 mm 1 mps 641 mmHg 71%
    23:00 +16°C° 0 mm 1 mps 641 mmHg 68%

    26 February, Tuesday

    Time Temperature Precipitation Wind Pressure Humidity
    00:00 +15°C° 0 mm 1 mps 641 mmHg 64%
    01:00 +15°C° 0 mm 1 mps 641 mmHg 65%
    02:00 +15°C° 0 mm 1 mps 640 mmHg 66%
    03:00 +15°C° 0 mm 1 mps 640 mmHg 67%
    04:00 +15°C° 0 mm 1 mps 640 mmHg 65%
    05:00 +14°C° 0 mm 1 mps 640 mmHg 63%
    06:00 +14°C° 0 mm 2 mps 640 mmHg 61%
    07:00 +18°C° 0 mm 1 mps 642 mmHg 51%
    08:00 +22°C° 0 mm 1 mps 643 mmHg 42%
    09:00 +25°C° 0 mm 1 mps 645 mmHg 32%
    10:00 +27°C° 0 mm 1 mps 645 mmHg 29%
    11:00 +28°C° 0 mm 1 mps 645 mmHg 25%
    12:00 +30°C° 0 mm 1 mps 645 mmHg 22%
    13:00 +30°C° 0 mm 1 mps 644 mmHg 24%
    14:00 +30°C° 0 mm 2 mps 644 mmHg 26%
    15:00 +29°C° 0 mm 2 mps 643 mmHg 29%
    16:00 +27°C° 0 mm 1 mps 642 mmHg 39%
    17:00 +24°C° 0 mm 1 mps 642 mmHg 50%
    18:00 +22°C° 0 mm 1 mps 641 mmHg 61%
    19:00 +20°C° 0 mm 1 mps 641 mmHg 64%
    20:00 +19°C° 0 mm 1 mps 641 mmHg 68%
    21:00 +16°C° 0 mm 1 mps 641 mmHg 72%
    22:00 +16°C° 0 mm 1 mps 641 mmHg 69%
    23:00 +16°C° 0 mm 1 mps 641 mmHg 66%

    27 February, Wednesday

    Time Temperature Precipitation Wind Pressure Humidity
    00:00 +16°C° 0 mm 1 mps 641 mmHg 63%
    01:00 +15°C° 0 mm 1 mps 641 mmHg 62%
    02:00 +15°C° 0 mm 1 mps 640 mmHg 61%
    03:00 +15°C° 0 mm 1 mps 640 mmHg 59%
    04:00 +14°C° 0 mm 1 mps 640 mmHg 55%
    05:00 +14°C° 0 mm 1 mps 640 mmHg 51%
    06:00 +14°C° 0 mm 2 mps 640 mmHg 46%
    07:00 +19°C° 0 mm 1 mps 641 mmHg 40%
    08:00 +22°C° 0 mm 1 mps 643 mmHg 33%
    09:00 +25°C° 0 mm 1 mps 644 mmHg 27%
    10:00 +27°C° 0 mm 1 mps 644 mmHg 26%
    11:00 +29°C° 0 mm 1 mps 644 mmHg 25%
    12:00 +31°C° 0 mm 1 mps 644 mmHg 24%
    13:00 +30°C° 0 mm 1 mps 644 mmHg 27%
    14:00 +30°C° 0 mm 2 mps 643 mmHg 30%
    15:00 +29°C° 0 mm 2 mps 642 mmHg 33%
    16:00 +27°C° 0 mm 2 mps 641 mmHg 44%
    17:00 +24°C° 0 mm 1 mps 641 mmHg 55%
    18:00 +22°C° 0 mm 1 mps 640 mmHg 67%
    19:00 +21°C° 0 mm 1 mps 641 mmHg 71%
    20:00 +19°C° 0 mm 1 mps 641 mmHg 75%
    21:00 +18°C° 0 mm 1 mps 641 mmHg 79%
    22:00 +16°C° 0 mm 1 mps 641 mmHg 76%
    23:00 +16°C° 0 mm 1 mps 641 mmHg 74%

    28 February, Thursday

    Time Temperature Precipitation Wind Pressure Humidity
    00:00 +16°C° 0 mm 1 mps 640 mmHg 72%
    01:00 +16°C° 0 mm 1 mps 640 mmHg 70%
    02:00 +15°C° 0 mm 1 mps 640 mmHg 68%
    03:00 +15°C° 0 mm 1 mps 639 mmHg 66%
    04:00 +15°C° 0 mm 1 mps 639 mmHg 63%
    05:00 +15°C° 0 mm 1 mps 640 mmHg 61%
    06:00 +15°C° 0 mm 1 mps 640 mmHg 58%
    07:00 +19°C° 0 mm 1 mps 641 mmHg 52%
    08:00 +22°C° 0 mm 1 mps 642 mmHg 47%
    09:00 +23°C° 0 mm 0 mps 644 mmHg 41%
    10:00 +27°C° 0 mm 1 mps 644 mmHg 39%
    11:00 +28°C° 0 mm 1 mps 644 mmHg 37%
    12:00 +29°C° 0 mm 2 mps 644 mmHg 35%
    13:00 +28°C° 0 mm 2 mps 643 mmHg 38%
    14:00 +28°C° 0 mm 2 mps 642 mmHg 42%
    15:00 +27°C° 0 mm 2 mps 641 mmHg 45%
    16:00 +25°C° 0 mm 1 mps 640 mmHg 51%
    17:00 +24°C° 0 mm 1 mps 640 mmHg 56%
    18:00 +22°C° 0 mm 1 mps 640 mmHg 62%
    19:00 +21°C° 0 mm 1 mps 640 mmHg 64%
    20:00 +19°C° 0 mm 1 mps 640 mmHg 66%
    21:00 +18°C° 0 mm 1 mps 640 mmHg 68%
    22:00 +18°C° 0 mm 1 mps 640 mmHg 64%
    23:00 +16°C° 0 mm 1 mps 640 mmHg 61%
    Show more